Voltar ao catálogo

STARLINK-36562

AtivoComunicaçõesSSO
NORAD 67570·PAYLOAD·🇺🇸 United States

Lançado Jan 25, 2026 de Vandenberg Space Force Base

Loading…

Próximas Passagens (próximas 24 horas)

TLE

AtualizadoSource: CelesTrak SupGP

Época: Sep 14, 2026, 21:44 UTC

1 67570C 26016K   26257.90604167 -.00012034  00000+0 -37365-3 0  2570
2 67570  97.2855 316.6785 0000841  93.4161 318.3799 15.33440182    18

Acompanhe STARLINK-36562 em tempo real com AllMySat

Download on the App Store